Regional Weather Roundup
Issued by NWS Albany, NY

Home | Current Version | Previous Version | Text Only | Print | Product List | Glossary On
Versions: 1 2 3 4 5 6 7 8 9 10 11 12 13 14 15 16 17 18 19 20 21 22 23 24 25 26 27 28 29 30 31 32 33 34 35 36 37 38 39 40 41 42 43 44 45 46 47 48 49 50
186
ASUS41 KALY 201210
RWRALY

NEW YORK STATE HOURLY WEATHER ROUNDUP
NATIONAL WEATHER SERVICE ALBANY NY
700 AM EST TUE FEB 20 2018

NOTE: "FAIR" INDICATES FEW OR NO CLOUDS BELOW 12,000 FEET WITH NO
SIGNIFICANT WEATHER AND/OR NO OBSTRUCTIONS TO VISIBILITY.

NYZ032-033-038>043-046>054-057>066-NYZ062>081-082-084-201300-
EAST


CITY           SKY/WX    TMP DP  RH WIND       PRES   REMARKS
ALBANY         CLOUDY    44  41  89 S12       30.23S FOG
GLENS FALLS    FOG       41  41 100 SW6       30.21R VSB 3/4
POUGHKEEPSIE   FOG       41  41 100 S3        30.28S VSB 3/4
MONTGOMERY     CLOUDY    40  40 100 SW7       30.27S FOG
WHITE PLAINS   FOG       47  47 100 VRB3      30.29R VSB 1/2
ISLIP          FOG       45  45 100 S3        30.32R VSB 1/8
NEW YORK CITY  DRZL/FOG  51  49  92 SW8       30.31R VSB 1
CENTRAL PARK   CLOUDY    50  50 100 W6        30.33S FOG
$$

NYZ005>009-017-018-044>046-055-056-201300-
CENTRAL


CITY           SKY/WX    TMP DP  RH WIND       PRES   REMARKS
FULTON         LGT RAIN  45  44  97 CALM      30.11S FOG
SYRACUSE       LGT RAIN  54  52  93 S10G21    30.12R
ROME           LGT RAIN  44  43  96 E9        30.17R
ELMIRA         FAIR      36  36 100 CALM      30.19S
BINGHAMTON     MOCLDY    43  42  97 S7        30.20R
MONTICELLO     CLOUDY    37  37 100 CALM      30.28R FOG
$$

NYZ026>034-041>043-087-201300-
NORTH


CITY           SKY/WX    TMP DP  RH WIND       PRES   REMARKS
WATERTOWN      LGT RAIN  51  50  96 S6        30.06S
FORT DRUM      NOT AVBL
OGDENSBURG     CLOUDY    38  38  99 CALM      30.10S FOG
MASSENA        LGT RAIN  36  36 100 E10       30.12F FOG     WCI  28
SARANAC LAKE   LGT RAIN  40  40 100 SW5       30.09R VSB 1/4
PLATTSBURGH    LGT RAIN  37  35  92 CALM      30.14S FOG
$$

NYZ001>004-010>016-019>021-085-201300-
WEST


CITY           SKY/WX    TMP DP  RH WIND       PRES   REMARKS
NIAGARA FALLS  LGT RAIN  58  51  78 SW17      30.03S
BUFFALO        RAIN      59  54  83 SW13      30.05S
DUNKIRK        CLOUDY    61  53  75 S13       30.07S
JAMESTOWN        N/A    N/A N/A N/A MISG        N/A
WELLSVILLE     FAIR      57  52  83 SW13      30.16S
ROCHESTER      CLOUDY    58  53  84 SW13G21   30.06F
PENN YAN       CLOUDY    50  44  80 SW13      30.13R
$$

             KEY
       WCI = WIND CHILL INDEX
       VSB = VISIBILITY
       HX  = HEAT INDEX
$$




USA.gov is the U.S. government's official web portal to all federal, state and local government web resources and services.